N9ALD Weather Reports


Display with metric or nautical units.
time (UTC)temp
F
wind
direction
speed
MPH
gust
MPH
rain 1hr
in
rain 24hr
in
rain mn
in
humidity
%
barometer
mb
20260905162815 86 234 5.0 6.0 0.00 0.00 0.00 62 1011.4
20260905162314 86 242 4.0 6.0 0.00 0.00 0.00 61 1011.3
20260905161809 85 238 4.0 6.0 0.00 0.00 0.00 61 1011.4
20260905161308 85 196 4.0 4.0 0.00 0.00 0.00 63 1011.3
20260905160807 85 217 5.0 7.0 0.00 0.00 0.00 63 1011.5
20260905160301 85 170 4.0 4.0 0.00 0.00 0.00 63 1011.4
20260905155756 85 215 2.0 2.0 0.00 0.00 0.00 65 1011.5
20260905155255 84 256 4.0 4.0 0.00 0.00 0.00 65 1011.4
20260905154754 84 194 3.0 4.0 0.00 0.00 0.00 65 1011.4
20260905154251 84 220 4.0 4.0 0.00 0.00 0.00 63 1011.3
20260905153746 84 201 6.0 8.0 0.00 0.00 0.00 63 1011.4
20260905153242 83 163 4.0 6.0 0.00 0.00 0.00 63 1011.6
20260905152737 83 185 1.0 1.0 0.00 0.00 0.00 67 1011.7
20260905152237 83 193 4.0 6.0 0.00 0.00 0.00 65 1011.8
20260905151736 83 186 3.0 3.0 0.00 0.00 0.00 65 1011.7
20260905151233 83 223 2.0 3.0 0.00 0.00 0.00 64 1011.7
20260905150732 82 189 1.0 2.0 0.00 0.00 0.00 65 1011.9
20260905150231 83 199 4.0 6.0 0.00 0.00 0.00 64 1011.8
20260905145729 82 332 1.0 1.0 0.00 0.00 0.00 66 1011.7
20260905145224 82 245 3.0 3.0 0.00 0.00 0.00 67 1011.8
20260905144723 81 234 2.0 2.0 0.00 0.00 0.00 68 1011.8
20260905144218 80 192 5.0 7.0 0.00 0.00 0.00 69 1011.8
20260905143717 81 225 3.0 4.0 0.00 0.00 0.00 69 1011.8
20260905143217 80 40 0.0 0.0 0.00 0.00 0.00 71 1011.7
20260905142715 79 172 4.0 4.0 0.00 0.00 0.00 71 1012.0
20260905142211 79 236 5.0 7.0 0.00 0.00 0.00 72 1012.1
20260905141706 79 160 4.0 6.0 0.00 0.00 0.00 71 1012.0
20260905141202 79 229 4.0 4.0 0.00 0.00 0.00 73 1012.0
20260905140657 79 35 0.0 0.0 0.00 0.00 0.00 74 1012.2
20260905140157 78 211 2.0 3.0 0.00 0.00 0.00 73 1012.1
20260905135652 78 258 1.0 2.0 0.00 0.00 0.00 75 1012.0
20260905135148 77 231 2.0 4.0 0.00 0.00 0.00 77 1012.1
20260905134647 76 14 1.0 1.0 0.00 0.00 0.00 78 1012.1
20260905134146 75 183 1.0 2.0 0.00 0.00 0.00 79 1011.9
20260905133642 75 321 2.0 3.0 0.00 0.00 0.00 80 1011.7
20260905133142 75 236 1.0 2.0 0.00 0.00 0.00 81 1011.8
20260905132641 74 322 1.0 1.0 0.00 0.00 0.00 82 1011.9
20260905132136 74 313 1.0 1.0 0.00 0.00 0.00 82 1011.9
20260905131631 74 23 0.0 0.0 0.00 0.00 0.00 83 1011.9
20260905131127 74 343 1.0 2.0 0.00 0.00 0.00 83 1011.9
20260905130627 74 245 3.0 3.0 0.00 0.00 0.00 83 1012.2
20260905130126 74 15 1.0 1.0 0.00 0.00 0.00 83 1012.1
20260905125621 74 218 2.0 2.0 0.00 0.00 0.00 83 1012.3
20260905125117 74 76 1.0 2.0 0.00 0.00 0.00 84 1012.3
20260905124613 74 274 1.0 2.0 0.00 0.00 0.00 85 1012.4
20260905124109 73 0 3.0 4.0 0.00 0.00 0.00 87 1012.2
20260905123603 73 333 2.0 3.0 0.00 0.00 0.00 86 1012.0
20260905123101 73 123 6.0 8.0 0.00 0.00 0.00 84 1012.0
20260905122601 74 122 3.0 4.0 0.00 0.00 0.00 85 1012.1
20260905122101 74 342 1.0 2.0 0.00 0.00 0.00 86 1012.1
20260905121555 74 358 3.0 3.0 0.00 0.00 0.00 87 1012.1
20260905121051 75 245 1.0 3.0 0.00 0.00 0.00 94 1011.9
20260905120550 75 65 0.0 1.0 0.00 0.00 0.00 95 1011.8
20260905120045 75 22 0.0 0.0 0.00 0.00 0.00 95 1011.4
20260905115544 75 261 2.0 2.0 0.00 0.00 0.00 97 1011.4
20260905115039 75 59 1.0 2.0 0.00 0.00 0.00 97 1011.5
20260905114538 74 94 4.0 8.0 0.00 0.00 0.00 97 1011.3
20260905114037 74 80 6.0 9.0 0.00 0.00 0.00 97 1011.5
20260905113532 74 39 0.0 0.0 0.00 0.00 0.00 97 1010.5
20260905113028 74 38 0.0 0.0 0.00 0.00 0.00 97 1010.6
20260905112523 74 319 0.0 1.0 0.00 0.00 0.00 97 1010.8
20260905112019 74 316 1.0 2.0 0.00 0.00 0.00 97 1010.5
20260905111519 73 287 1.0 1.0 0.00 0.00 0.00 97 1010.4
20260905111018 73 222 0.0 0.0 0.00 0.00 0.00 97 1010.3
20260905110517 73 222 0.0 0.0 0.00 0.00 0.00 96 1010.3
20260905110013 74 222 0.0 0.0 0.00 0.00 0.00 96 1010.3
20260905105507 74 222 0.0 0.0 0.00 0.00 0.00 96 1010.2
20260905105007 74 222 0.0 0.0 0.00 0.00 0.00 97 1010.2
20260905104503 74 222 0.0 0.0 0.00 0.00 0.00 96 1010.3
20260905104002 74 222 0.0 0.0 0.00 0.00 0.00 96 1010.1
20260905103458 74 222 0.0 0.0 0.00 0.00 0.00 96 1010.2
20260905102954 74 224 1.0 1.0 0.00 0.00 0.00 96 1010.0
20260905102450 74 224 0.0 0.0 0.00 0.00 0.00 96 1009.9
20260905101945 74 224 0.0 1.0 0.00 0.00 0.00 96 1010.1
20260905101444 74 224 1.0 1.0 0.00 0.00 0.00 97 1009.9
20260905100943 74 224 1.0 1.0 0.00 0.00 0.00 96 1010.3
20260905100439 74 224 1.0 1.0 0.00 0.00 0.00 96 1010.3
20260905095938 74 224 0.0 0.0 0.00 0.00 0.00 97 1010.2
20260905095438 74 229 2.0 2.0 0.00 0.00 0.00 97 1010.2
20260905094933 74 232 2.0 2.0 0.00 0.00 0.00 97 1010.1
20260905094429 74 272 0.0 0.0 0.00 0.00 0.00 97 1010.2
20260905093927 74 292 0.0 0.0 0.00 0.00 0.00 96 1010.3
20260905093423 74 292 0.0 0.0 0.00 0.00 0.00 96 1010.2
20260905092918 74 292 0.0 0.0 0.00 0.00 0.00 96 1010.3
20260905092413 74 292 0.0 0.0 0.00 0.00 0.00 96 1010.2
20260905091909 75 292 0.0 0.0 0.00 0.00 0.00 96 1010.2
20260905091409 75 291 0.0 0.0 0.00 0.00 0.00 96 1010.1
20260905090908 75 291 0.0 0.0 0.00 0.00 0.00 95 1010.2
20260905090404 75 291 0.0 0.0 0.00 0.00 0.00 95 1010.1
20260905085903 75 291 0.0 0.0 0.00 0.00 0.00 95 1010.1
20260905085403 75 292 0.0 0.0 0.00 0.00 0.00 95 1010.0
20260905084859 76 292 0.0 0.0 0.00 0.00 0.00 95 1010.1
20260905084357 76 291 0.0 0.0 0.00 0.00 0.00 95 1009.7
20260905083853 76 291 0.0 0.0 0.00 0.00 0.00 95 1009.8
20260905083348 76 291 0.0 0.0 0.00 0.00 0.00 95 1009.8
20260905082844 76 321 1.0 1.0 0.00 0.00 0.00 95 1009.7
20260905082340 76 310 0.0 1.0 0.00 0.00 0.00 96 1009.8
20260905081835 75 296 1.0 1.0 0.00 0.00 0.00 96 1009.5
20260905081330 75 260 2.0 2.0 0.00 0.00 0.00 96 1009.8
20260905080829 75 301 0.0 0.0 0.00 0.00 0.00 96 1009.7
20260905080324 75 300 0.0 0.0 0.00 0.00 0.00 97 1009.6
20260905075822 74 300 0.0 0.0 0.00 0.00 0.00 97 1009.5
20260905075322 74 301 0.0 0.0 0.00 0.00 0.00 97 1009.6
20260905074821 74 301 0.0 0.0 0.00 0.00 0.00 97 1009.7
20260905074317 74 301 0.0 0.0 0.00 0.00 0.00 97 1009.6
20260905073813 74 301 0.0 0.0 0.00 0.00 0.00 97 1009.5
20260905073308 74 301 0.0 0.0 0.00 0.00 0.00 97 1009.4
20260905072808 74 301 0.0 0.0 0.00 0.00 0.00 97 1009.5
20260905072305 74 301 0.0 0.0 0.00 0.00 0.00 97 1009.6
20260905071759 74 301 0.0 0.0 0.00 0.00 0.00 97 1009.5
20260905071255 74 301 0.0 0.0 0.00 0.00 0.00 97 1009.5
20260905070749 74 301 0.0 0.0 0.00 0.00 0.00 97 1009.7
20260905070247 74 301 0.0 0.0 0.00 0.00 0.00 97 1009.9
20260905065745 75 301 0.0 0.0 0.00 0.00 0.00 97 1009.6
20260905065244 74 301 0.0 0.0 0.00 0.00 0.00 97 1010.0
20260905064740 74 301 0.0 0.0 0.00 0.00 0.00 97 1010.0
20260905064235 74 301 0.0 0.0 0.00 0.00 0.00 97 1010.0
20260905063733 74 301 0.0 0.0 0.00 0.00 0.00 97 1010.1
20260905063230 75 301 0.0 0.0 0.00 0.00 0.00 97 1010.2
20260905062726 75 301 0.0 0.0 0.00 0.00 0.00 97 1010.3
20260905062225 75 301 0.0 0.0 0.00 0.00 0.00 97 1010.3
20260905061720 75 301 0.0 0.0 0.00 0.00 0.00 97 1010.5
20260905061214 75 301 0.0 0.0 0.00 0.00 0.00 97 1010.5
20260905060709 75 301 0.0 0.0 0.00 0.00 0.00 96 1010.5
20260905060206 75 301 0.0 0.0 0.00 0.00 0.00 97 1010.5
20260905055704 75 301 0.0 0.0 0.00 0.00 0.00 96 1010.5
20260905055159 75 301 0.0 0.0 0.00 0.00 0.00 96 1010.5
20260905054655 75 301 0.0 0.0 0.00 0.00 0.00 96 1010.6
20260905054151 75 301 0.0 0.0 0.00 0.00 0.00 96 1010.7
20260905053650 75 301 0.0 0.0 0.00 0.00 0.00 96 1010.6
20260905053145 75 301 0.0 0.0 0.00 0.00 0.00 96 1010.7
20260905052645 75 301 0.0 0.0 0.00 0.00 0.00 96 1010.8
20260905052140 75 301 0.0 0.0 0.00 0.00 0.00 96 1010.5
20260905051635 75 301 0.0 0.0 0.00 0.00 0.00 96 1010.6
20260905051132 75 301 0.0 0.0 0.00 0.00 0.00 95 1010.7
20260905050628 75 301 0.0 0.0 0.00 0.00 0.00 95 1010.7
20260905050125 76 301 0.0 0.0 0.00 0.00 0.00 96 1010.7
20260905045624 76 301 0.0 0.0 0.00 0.00 0.00 96 1010.7
20260905045120 76 301 0.0 0.0 0.00 0.00 0.00 95 1010.9
20260905044620 76 301 0.0 0.0 0.00 0.00 0.00 95 1010.8
20260905044120 76 301 0.0 0.0 0.00 0.00 0.00 96 1010.7
20260905043618 76 301 0.0 0.0 0.00 0.00 0.00 96 1010.9
20260905043114 76 301 0.0 0.0 0.00 0.00 0.00 96 1010.9
20260905042612 76 301 0.0 0.0 0.00 0.00 0.00 96 1010.9
20260905042108 76 301 0.0 0.0 0.00 0.00 0.00 96 1010.9
20260905041603 76 301 0.0 0.0 0.00 0.00 0.00 95 1010.9
20260905041059 76 301 0.0 0.0 0.00 0.00 0.00 95 1011.0
20260905040559 76 301 0.0 0.0 0.00 0.00 0.00 96 1011.0
20260905040057 76 301 0.0 0.0 0.00 0.00 0.00 95 1011.0
20260905035552 76 301 0.0 0.0 0.00 0.00 0.00 95 1011.0
20260905035049 76 301 0.0 0.0 0.00 0.00 0.00 94 1010.8
20260905034545 76 301 0.0 0.0 0.00 0.00 0.00 94 1011.1
20260905034039 76 301 0.0 0.0 0.00 0.00 0.00 94 1011.1
20260905033538 76 301 0.0 0.0 0.00 0.00 0.00 94 1011.0
20260905033035 76 301 0.0 0.0 0.00 0.00 0.00 94 1011.1
20260905032535 76 301 0.0 0.0 0.00 0.00 0.00 93 1011.2
20260905032030 76 301 0.0 0.0 0.00 0.00 0.00 93 1011.2
20260905031526 76 301 0.0 0.0 0.00 0.00 0.00 93 1011.0
20260905031025 77 301 0.0 0.0 0.00 0.00 0.00 93 1011.2
20260905030521 77 301 0.0 0.0 0.00 0.00 0.00 93 1010.9
20260905030021 77 301 0.0 0.0 0.00 0.00 0.00 93 1010.8
20260905025516 77 301 0.0 0.0 0.00 0.00 0.00 93 1010.8
20260905025012 77 301 0.0 0.0 0.00 0.00 0.00 93 1010.9
20260905024507 77 301 0.0 0.0 0.00 0.00 0.00 92 1010.8
20260905024002 77 301 0.0 0.0 0.00 0.00 0.00 92 1010.7
20260905023457 77 301 0.0 0.0 0.00 0.00 0.00 92 1011.0
20260905022956 78 301 0.0 0.0 0.00 0.00 0.00 91 1010.9
20260905022451 78 301 0.0 0.0 0.00 0.00 0.00 91 1010.8
20260905021947 78 301 0.0 0.0 0.00 0.00 0.00 92 1010.8
20260905021446 78 301 0.0 0.0 0.00 0.00 0.00 91 1010.8
20260905020941 78 301 0.0 0.0 0.00 0.00 0.00 91 1010.7
20260905020442 78 301 0.0 0.0 0.00 0.00 0.00 91 1010.6
20260905015941 78 301 0.0 0.0 0.00 0.00 0.00 90 1010.6
20260905015440 78 301 0.0 0.0 0.00 0.00 0.00 90 1010.7
20260905014939 78 301 0.0 0.0 0.00 0.00 0.00 90 1010.6
20260905014435 79 301 0.0 0.0 0.00 0.00 0.00 90 1010.6
20260905013930 79 301 0.0 0.0 0.00 0.00 0.00 90 1010.6
20260905013427 79 301 0.0 0.0 0.00 0.00 0.00 90 1010.7
20260905012927 79 301 0.0 0.0 0.00 0.00 0.00 89 1010.7
20260905012422 79 301 0.0 0.0 0.00 0.00 0.00 89 1010.7
20260905011919 79 301 0.0 1.0 0.00 0.00 0.00 89 1010.6
20260905011414 79 301 0.0 0.0 0.00 0.00 0.00 89 1010.4
20260905010910 80 301 0.0 0.0 0.00 0.00 0.00 88 1010.5
20260905010405 80 301 0.0 0.0 0.00 0.00 0.00 87 1010.6
20260905005901 80 301 0.0 0.0 0.00 0.00 0.00 86 1010.5
20260905005356 81 301 0.0 0.0 0.00 0.00 0.00 85 1010.6
20260905004852 81 301 0.0 1.0 0.00 0.00 0.00 85 1010.4
20260905004352 81 301 0.0 0.0 0.00 0.00 0.00 84 1010.5
20260905003847 82 301 0.0 0.0 0.00 0.00 0.00 84 1010.2
20260905003343 82 301 0.0 0.0 0.00 0.00 0.00 83 1010.2
20260905002838 83 301 0.0 0.0 0.00 0.00 0.00 83 1010.3
20260905002338 84 301 0.0 0.0 0.00 0.00 0.00 82 1010.2
20260905001833 84 301 0.0 0.0 0.00 0.00 0.00 79 1010.5
20260905001332 85 301 0.0 0.0 0.00 0.00 0.00 78 1010.4
20260905000828 86 301 0.0 0.0 0.00 0.00 0.00 76 1010.5
20260905000325 87 301 0.0 0.0 0.00 0.00 0.00 73 1010.3
20260904235818 88 301 0.0 0.0 0.00 0.00 0.00 72 1010.5
20260904235314 89 301 0.0 0.0 0.00 0.00 0.00 71 1010.4
20260904234808 90 301 1.0 1.0 0.00 0.00 0.00 69 1010.3
20260904234303 93 301 1.0 1.0 0.00 0.00 0.00 65 1010.3
20260904233759 94 301 1.0 1.0 0.00 0.00 0.00 63 1010.2
20260904233255 94 300 0.0 0.0 0.00 0.00 0.00 59 1010.4
20260904232752 94 301 0.0 0.0 0.00 0.00 0.00 59 1010.3
20260904232248 94 301 0.0 0.0 0.00 0.00 0.00 58 1010.2
20260904231743 94 303 0.0 1.0 0.00 0.00 0.00 57 1010.3
20260904231238 94 261 2.0 2.0 0.00 0.00 0.00 57 1010.1
20260904230738 94 287 0.0 0.0 0.00 0.00 0.00 57 1010.2
20260904230232 95 274 1.0 2.0 0.00 0.00 0.00 56 1010.1
20260904225732 95 294 1.0 2.0 0.00 0.00 0.00 57 1010.3
20260904225226 95 300 1.0 1.0 0.00 0.00 0.00 59 1010.2
20260904224725 95 226 6.0 7.0 0.00 0.00 0.00 56 1010.2
20260904224220 95 273 2.0 3.0 0.00 0.00 0.00 56 1010.1
20260904223719 95 205 3.0 3.0 0.00 0.00 0.00 55 1010.1
20260904223215 96 246 1.0 1.0 0.00 0.00 0.00 55 1010.1
20260904222711 96 277 1.0 2.0 0.00 0.00 0.00 54 1010.1
20260904222206 96 286 2.0 2.0 0.00 0.00 0.00 54 1009.9
20260904221705 96 211 3.0 3.0 0.00 0.00 0.00 53 1010.0
20260904221201 96 287 1.0 1.0 0.00 0.00 0.00 53 1009.9
20260904220655 97 272 3.0 3.0 0.00 0.00 0.00 53 1010.1
20260904220150 97 210 2.0 3.0 0.00 0.00 0.00 54 1010.1
20260904215650 97 254 2.0 3.0 0.00 0.00 0.00 53 1010.1
20260904215147 97 213 3.0 4.0 0.00 0.00 0.00 54 1009.9
20260904214647 97 350 4.0 4.0 0.00 0.00 0.00 52 1010.1
20260904214143 96 311 3.0 3.0 0.00 0.00 0.00 52 1010.2
20260904213640 97 246 4.0 4.0 0.00 0.00 0.00 51 1010.1
20260904213138 98 288 3.0 3.0 0.00 0.00 0.00 51 1010.1
20260904212637 98 181 3.0 3.0 0.00 0.00 0.00 51 1010.3
20260904212132 98 272 2.0 2.0 0.00 0.00 0.00 51 1010.3
20260904211632 98 215 2.0 4.0 0.00 0.00 0.00 51 1010.2
20260904211128 98 333 1.0 1.0 0.00 0.00 0.00 51 1010.3
20260904210627 98 324 2.0 2.0 0.00 0.00 0.00 50 1010.3
20260904210123 98 325 4.0 6.0 0.00 0.00 0.00 51 1010.5
20260904205619 98 283 2.0 2.0 0.00 0.00 0.00 53 1010.7
20260904205115 97 252 2.0 2.0 0.00 0.00 0.00 50 1010.6
20260904204610 97 278 3.0 3.0 0.00 0.00 0.00 51 1010.7
20260904204106 98 278 5.0 6.0 0.00 0.00 0.00 51 1010.6
20260904203602 98 298 1.0 2.0 0.00 0.00 0.00 52 1010.7
20260904203058 98 242 3.0 3.0 0.00 0.00 0.00 52 1010.8
20260904202554 98 293 2.0 2.0 0.00 0.00 0.00 53 1010.9
20260904202051 98 254 5.0 6.0 0.00 0.00 0.00 51 1011.0
20260904201550 97 301 2.0 3.0 0.00 0.00 0.00 52 1011.1
20260904201046 97 348 3.0 4.0 0.00 0.00 0.00 53 1010.9
20260904200544 97 328 4.0 4.0 0.00 0.00 0.00 52 1011.3
20260904200040 97 338 2.0 2.0 0.00 0.00 0.00 52 1011.2
20260904195538 98 315 4.0 4.0 0.00 0.00 0.00 50 1011.3
20260904195038 98 276 2.0 3.0 0.00 0.00 0.00 51 1011.4
20260904194533 98 293 1.0 2.0 0.00 0.00 0.00 51 1011.1
20260904194028 98 335 2.0 2.0 0.00 0.00 0.00 54 1011.7
20260904193528 98 64 2.0 3.0 0.00 0.00 0.00 51 1011.5
20260904193025 97 331 5.0 6.0 0.00 0.00 0.00 51 1011.6
20260904192523 97 309 5.0 7.0 0.00 0.00 0.00 51 1011.7
20260904192020 97 325 4.0 4.0 0.00 0.00 0.00 51 1011.8
20260904191516 97 325 6.0 7.0 0.00 0.00 0.00 51 1011.7
20260904191013 97 259 4.0 6.0 0.00 0.00 0.00 50 1011.9
20260904190508 97 351 4.0 4.0 0.00 0.00 0.00 52 1011.9
20260904190004 97 311 3.0 3.0 0.00 0.00 0.00 54 1012.0
20260904185500 97 326 4.0 4.0 0.00 0.00 0.00 52 1012.0
20260904184955 97 331 3.0 3.0 0.00 0.00 0.00 52 1012.1
20260904184454 96 291 4.0 6.0 0.00 0.00 0.00 52 1012.3
20260904183950 97 293 3.0 4.0 0.00 0.00 0.00 52 1012.4
20260904183445 97 351 3.0 4.0 0.00 0.00 0.00 53 1012.4
20260904182940 97 283 4.0 4.0 0.00 0.00 0.00 52 1012.4
20260904182436 96 305 5.0 6.0 0.00 0.00 0.00 50 1012.4
20260904181936 96 245 4.0 6.0 0.00 0.00 0.00 51 1012.4
20260904181431 96 354 3.0 6.0 0.00 0.00 0.00 51 1012.5
20260904180926 96 312 2.0 2.0 0.00 0.00 0.00 53 1012.6
20260904180421 96 218 4.0 4.0 0.00 0.00 0.00 54 1012.5
20260904175920 96 295 4.0 6.0 0.00 0.00 0.00 53 1012.6
20260904175420 96 299 2.0 3.0 0.00 0.00 0.00 54 1012.4
20260904174920 95 255 6.0 9.0 0.00 0.00 0.00 54 1012.7
20260904174415 95 332 4.0 6.0 0.00 0.00 0.00 55 1012.5
20260904173911 96 348 6.0 9.0 0.00 0.00 0.00 54 1012.7
20260904173407 96 299 6.0 7.0 0.00 0.00 0.00 57 1012.9
20260904172903 95 232 3.0 4.0 0.00 0.00 0.00 55 1013.0
20260904172402 95 232 3.0 3.0 0.00 0.00 0.00 55 1012.8
20260904171857 95 319 2.0 2.0 0.00 0.00 0.00 55 1013.0
20260904171352 95 294 2.0 3.0 0.00 0.00 0.00 54 1013.0
20260904170848 95 243 6.0 7.0 0.00 0.00 0.00 54 1013.3
20260904170343 95 283 5.0 6.0 0.00 0.00 0.00 55 1013.2
20260904165839 95 310 6.0 8.0 0.00 0.00 0.00 55 1013.2
20260904165337 95 313 4.0 7.0 0.00 0.00 0.00 54 1013.2
20260904164833 95 216 5.0 6.0 0.00 0.00 0.00 53 1013.1
20260904164332 95 276 4.0 4.0 0.00 0.00 0.00 54 1013.1
20260904163829 94 207 2.0 3.0 0.00 0.00 0.00 55 1013.2
20260904163329 94 242 4.0 7.0 0.00 0.00 0.00 56 1013.1